[[{"header":{"parameterUnit":"m.s-1","parameterCategory":1,"la1":30.2991,"la2":30.254,"lo1":-89.0895,"lo2":-89.0444,"dy":0.0017,"dx":0.0017,"nx":28,"ny":28,"refTime":"2024-08-30T09:00:00:Z","depth":0,"parameterNumber":2,"parameterNumberName":"U-component_of_WINDS"},"data":[0,0,0,0,0,0,0,0,0,0,0,0,0,0,0,0,0,0,0,0,0,0,0,0,0,0,0,0,0,0,0,0,0,0,0,0,0,0,0,0,0,0,0,0,0,0,0,0,0,0,0,0,0,0,0,0,0,0,-3.8273,-3.8273,0,-3.8253,-3.8253,-3.8252,-3.8108,-3.8105,-3.8101,-3.8098,-3.8079,-3.8082,-3.8085,0,0,0,0,0,0,0,0,0,0,0,0,0,-3.8188,-3.8191,-3.8273,-3.8273,-3.8273,-3.8253,-3.8253,-3.8252,-3.8109,-3.8105,-3.81,-3.8096,-3.8078,-3.8082,-3.8085,0,0,0,0,0,0,0,0,0,0,0,0,0,-3.8203,-3.8192,-3.8273,-3.8199,-3.8192,-3.8253,-3.8253,-3.8252,-3.811,-3.8104,-3.8099,-3.8094,-3.8077,-3.8081,-3.8085,-3.8218,0,0,-3.8098,-3.81,0,0,0,0,0,0,0,0,-3.8202,-3.8206,-3.821,-3.8204,-3.8196,-3.8178,-3.8216,-3.8241,-3.8111,-3.8141,-3.8098,-3.8092,-3.8116,-3.8117,-3.8125,-3.8217,-3.8216,-3.8099,-3.8101,-3.8103,-3.8104,0,0,0,0,0,0,0,-3.8201,-3.8206,-3.8265,-3.821,-3.8202,-3.8166,-3.8163,-3.822,-3.8159,-3.8138,-3.8127,-3.8127,-3.8112,-3.8121,-3.8123,-3.8216,-3.8099,-3.8102,-3.8105,-3.8107,-3.8413,-3.8418,0,0,0,0,0,0,-3.821,-3.8206,-3.8266,-3.8264,-3.8186,-3.8172,-3.8168,-3.8189,-3.8158,-3.8148,-3.8131,-3.812,-3.8117,-3.8119,-3.8122,-3.8272,-3.8103,-3.8107,-3.8109,-3.8407,-3.8414,-3.842,0,0,0,0,0,0,-3.8209,-3.8217,-3.8266,-3.8232,-3.8236,-3.8179,-3.8204,-3.8191,-3.8201,-3.8153,-3.8141,-3.8152,-3.8113,-3.8116,-3.8194,-3.827,-3.8109,-3.8113,-3.8401,-3.8409,-3.8417,-3.8576,0,0,0,0,0,0,-3.8207,-3.8218,-3.8267,-3.8235,-3.8238,-3.8339,-3.8209,-3.8195,-3.8208,-3.8193,-3.8169,-3.816,-3.8109,-3.8189,-3.8199,-3.8273,-3.8116,-3.8393,-3.8404,-3.8414,-3.8564,-3.8589,-3.861,0,0,0,0,0,-3.8205,-3.8313,-3.827,-3.8278,-3.8299,-3.8344,-3.8346,-3.8284,-3.8215,-3.8264,-3.8233,-3.8161,-3.8261,-3.8198,-3.8208,-3.8285,-3.8388,-3.8401,-3.8414,-3.8553,-3.8584,-3.861,0,0,0,0,0,0,-3.8356,-3.8308,-3.8259,-3.836,-3.8357,-3.8319,-3.8379,-3.8318,-3.8335,-3.8321,-3.8244,-3.824,-3.8329,-3.8315,-3.8246,-3.841,-3.8312,-3.8327,-3.8415,-3.8444,-3.8467,-3.8467,-3.8119,0,0,0,0,0,-3.8402,-3.8442,-3.8397,-3.8491,-3.8492,-3.8436,-3.8453,-3.8406,-3.84,-3.8398,-3.8372,-3.837,-3.84,-3.8422,-3.8447,-3.8562,-3.8554,-3.862,-3.8643,-3.8663,-3.8676,-3.8733,-3.8762,-3.8462,-3.8461,-3.8461,0,0,-3.8495,-3.8474,-3.8504,-3.8521,-3.8512,-3.8555,-3.8436,-3.8487,-3.8518,-3.8406,-3.8476,-3.8459,-3.845,-3.8547,-3.8588,-3.8538,-3.8757,-3.8679,-3.8695,-3.8697,-3.8749,-3.8778,-3.8803,-3.847,-3.8469,-3.8467,0,0,-3.8687,-3.8676,-3.8751,-3.8745,-3.8734,-3.8697,-3.8715,-3.8687,-3.867,-3.874,-3.8656,-3.8693,-3.8748,-3.8744,-3.875,-3.8942,-3.8875,-3.8953,-3.9073,-3.9131,-3.9154,-3.9175,-3.924,-3.9265,-3.8967,-3.8967,-3.8967,0,-3.8805,-3.8865,-3.8798,-3.8853,-3.8863,-3.8763,-3.8839,-3.8837,-3.8836,-3.8844,-3.8789,-3.8854,-3.8842,-3.8935,-3.8982,-3.8991,-3.9009,-3.8953,-3.9156,-3.9176,-3.9194,-3.9256,-3.9281,-3.8976,-3.8975,-3.8974,-3.8973,0,-3.9009,-3.9053,-3.9116,-3.9115,-3.9132,-3.9198,-3.914,-3.9166,-3.9118,-3.9086,-3.9159,-3.9141,-3.916,-3.918,-3.9134,-3.9267,-3.9235,-3.917,-3.9069,-3.9233,-3.929,-3.9313,-3.8989,-3.8986,-3.8983,-3.8981,0,0,-3.9293,-3.9255,-3.9279,-3.9277,-3.9258,-3.929,-3.9352,-3.937,-3.9392,-3.9396,-3.9444,-3.9493,-3.9432,-3.9438,-3.9392,-3.9443,-3.9592,-3.9369,-3.9368,-3.9409,-3.9735,-3.9783,-3.9811,-3.955,-3.9554,-3.9558,-3.9735,0,-3.9475,-3.9576,-3.9517,-3.9627,-3.9665,-3.9572,-3.9625,-3.962,-3.9593,-3.9622,-3.9593,-3.9627,-3.9545,-3.9548,-3.9594,-3.9564,-3.9656,-3.9551,-3.9593,-3.9595,-3.9594,-3.9841,-3.9891,-4.0059,-3.9757,-3.9761,-3.9764,0,-3.9699,-3.971,-3.9824,-3.9796,-3.981,-3.9859,-3.987,-3.99,-3.9892,-3.9869,-3.9877,-3.9817,-3.9876,-3.978,-3.9858,-3.9788,-3.9803,-3.9791,-3.9796,-3.9794,-3.9687,-3.9844,-4.0112,-4.0136,-3.9798,-3.9796,-3.9793,0,-3.9891,-3.9936,-4.0008,-4.001,-3.998,-4.0016,-4.0006,-3.9993,-4.0007,-4.0018,-4.0026,-4.0045,-4.0055,-4.007,-4.0017,-3.9953,-4.0103,-4.0003,-4.0084,-4.0085,-4.0117,-4.0115,-4.0388,-4.0132,-4.0132,-4.0131,-4.0131,0,-4.0098,-4.017,-4.0093,-4.0138,-4.0216,-4.0149,-4.0229,-4.0208,-4.0198,-4.0236,-4.0159,-4.0197,-4.0127,-4.0158,-4.0118,-4.0188,-4.0194,-4.0176,-4.0164,-4.0181,-4.0183,-4.0187,-4.0172,-4.0138,-4.0137,-4.0135,-4.0134,0,-4.0323,-4.0276,-4.0348,-4.0314,-4.0308,-4.0367,-4.0338,-4.0378,-4.0346,-4.0396,-4.0404,-4.0355,-4.0388,-4.0338,-4.0366,-4.0339,-4.0435,-4.0407,-4.0437,-4.0427,-4.051,-4.0502,-4.0792,-4.0826,-4.0553,-4.0555,-4.0558,0,-4.0456,-4.0509,-4.0481,-4.0501,-4.0495,-4.0529,-4.0543,-4.048,-4.0498,-4.0493,-4.0533,-4.056,-4.0577,-4.0635,-4.0601,-4.0622,-4.0592,-4.0693,-4.0594,-4.0609,-4.0589,-4.0585,-4.0589,-4.0711,-4.0715,-4.0717,-4.072,0,-4.0697,-4.067,-4.0693,-4.0708,-4.0726,-4.0735,-4.0738,-4.076,-4.0693,-4.0718,-4.075,-4.0764,-4.0792,-4.0818,-4.0831,-4.0821,-4.0759,-4.0751,-4.077,-4.0786,-4.08,-4.0791,-4.0488,-4.0744,-4.0741,-4.074,-4.0738,-4.0737,-4.0877,-4.0919,-4.0905,-4.0933,-4.0929,-4.0934,-4.0969,-4.0942,-4.0967,-4.0984,-4.0947,-4.0988,-4.0979,-4.0989,-4.0986,-4.1018,-4.0973,-4.1002,-4.1009,-4.1016,-4.1027,-4.0799,-4.102,-4.102,-4.1019,-4.1018,-4.1018,0,-4.111,-4.1097,-4.1123,-4.1129,-4.1151,-4.1092,-4.1093,-4.1115,-4.1152,-4.1149,-4.1167,-4.1204,-4.123,-4.12,-4.122,-4.1252,-4.1224,-4.1259,-4.1254,-4.1252,-4.1067,-4.1047,-4.1281,-4.1281,-4.1281,-4.1281,-4.1281,-4.128,-4.1233,-4.13,-4.1273,-4.1337,-4.1324,-4.1362,-4.1368,-4.1372,-4.1368,-4.1413,-4.1433,-4.1413,-4.1399,-4.1418,-4.1439,-4.1429,-4.1439,-4.1484,-4.1464,-4.1291,-4.1265,-4.124,-4.1221,-4.1487,-4.1488,-4.1645,-4.1647,-4.1648]},{"header":{"parameterUnit":"m.s-1","parameterCategory":1,"la1":30.2991,"la2":30.254,"lo1":-89.0895,"lo2":-89.0444,"dy":0.0017,"dx":0.0017,"nx":28,"ny":28,"refTime":"2024-08-30T09:00:00:Z","depth":0,"parameterNumber":3,"parameterNumberName":"V-component_of_WINDS"},"data":[0,0,0,0,0,0,0,0,0,0,0,0,0,0,0,0,0,0,0,0,0,0,0,0,0,0,0,0,0,0,0,0,0,0,0,0,0,0,0,0,0,0,0,0,0,0,0,0,0,0,0,0,0,0,0,0,0,0,-0.2519,-0.2519,0,-0.2583,-0.2584,-0.2584,-0.2664,-0.2665,-0.2666,-0.2667,-0.2732,-0.2732,-0.2733,0,0,0,0,0,0,0,0,0,0,0,0,0,-0.2462,-0.2462,-0.2519,-0.2519,-0.252,-0.2583,-0.2584,-0.2585,-0.2663,-0.2665,-0.2666,-0.2668,-0.2732,-0.2732,-0.2733,0,0,0,0,0,0,0,0,0,0,0,0,0,-0.2502,-0.2462,-0.2518,-0.2567,-0.2572,-0.2583,-0.2584,-0.2585,-0.2663,-0.2665,-0.2667,-0.2668,-0.2731,-0.2732,-0.2733,-0.2701,0,0,-0.2736,-0.2736,0,0,0,0,0,0,0,0,-0.25,-0.2504,-0.2559,-0.2564,-0.2569,-0.2617,-0.2588,-0.2624,-0.2662,-0.2628,-0.2667,-0.2669,-0.2692,-0.2696,-0.2704,-0.2704,-0.2707,-0.2736,-0.2736,-0.2737,-0.2737,0,0,0,0,0,0,0,-0.2497,-0.2502,-0.2544,-0.256,-0.2566,-0.2585,-0.2593,-0.2595,-0.2649,-0.2631,-0.2637,-0.2644,-0.2695,-0.2703,-0.2706,-0.2708,-0.2736,-0.2737,-0.2737,-0.2737,-0.2682,-0.268,0,0,0,0,0,0,-0.2487,-0.2499,-0.2542,-0.2546,-0.2538,-0.2584,-0.2593,-0.26,-0.2649,-0.2658,-0.2642,-0.2647,-0.2701,-0.2705,-0.2709,-0.2673,-0.2737,-0.2737,-0.2738,-0.2684,-0.2682,-0.268,0,0,0,0,0,0,-0.2485,-0.249,-0.2539,-0.2524,-0.2532,-0.2583,-0.259,-0.26,-0.2608,-0.2657,-0.2667,-0.2641,-0.2703,-0.2708,-0.2702,-0.2676,-0.2738,-0.2739,-0.2687,-0.2684,-0.2681,-0.2602,0,0,0,0,0,0,-0.2483,-0.2489,-0.2478,-0.2523,-0.2532,-0.2532,-0.2589,-0.26,-0.261,-0.2617,-0.2658,-0.2667,-0.2704,-0.27,-0.2703,-0.2679,-0.2739,-0.2689,-0.2685,-0.2682,-0.2607,-0.2596,-0.2588,0,0,0,0,0,-0.2481,-0.2453,-0.2477,-0.2482,-0.252,-0.253,-0.2535,-0.2579,-0.2607,-0.2596,-0.2627,-0.2666,-0.2679,-0.2699,-0.2703,-0.2678,-0.2691,-0.2686,-0.2682,-0.2611,-0.2599,-0.2588,0,0,0,0,0,0,-0.2403,-0.246,-0.2487,-0.2473,-0.2496,-0.2544,-0.2531,-0.2565,-0.258,-0.2586,-0.264,-0.2648,-0.2636,-0.2657,-0.2678,-0.2649,-0.2691,-0.2687,-0.2635,-0.2624,-0.2614,-0.2609,-0.274,0,0,0,0,0,-0.2385,-0.2389,-0.2438,-0.2421,-0.2431,-0.2479,-0.2485,-0.2517,-0.2543,-0.2553,-0.2584,-0.2607,-0.2617,-0.2622,-0.2633,-0.2611,-0.262,-0.2596,-0.2586,-0.2578,-0.2573,-0.2561,-0.255,-0.2665,-0.2665,-0.2665,0,0,-0.2346,-0.2378,-0.2377,-0.2406,-0.2428,-0.243,-0.2487,-0.2487,-0.2489,-0.2553,-0.2549,-0.2572,-0.2602,-0.2587,-0.2582,-0.2604,-0.2544,-0.2572,-0.2565,-0.2565,-0.2555,-0.2544,-0.2535,-0.2662,-0.2663,-0.2663,0,0,-0.2276,-0.2301,-0.2289,-0.2309,-0.2341,-0.2373,-0.237,-0.2412,-0.243,-0.2427,-0.2474,-0.2477,-0.2492,-0.2511,-0.2522,-0.2458,-0.2493,-0.246,-0.2409,-0.2397,-0.2388,-0.238,-0.2355,-0.2346,-0.2456,-0.2456,-0.2456,0,-0.2224,-0.223,-0.2278,-0.2275,-0.2286,-0.2344,-0.2331,-0.2349,-0.2382,-0.2388,-0.2412,-0.2432,-0.2456,-0.2445,-0.2429,-0.2437,-0.2434,-0.2455,-0.2385,-0.2378,-0.2371,-0.2348,-0.2339,-0.2451,-0.2452,-0.2452,-0.2453,0,-0.2163,-0.2167,-0.2153,-0.2184,-0.2193,-0.2185,-0.2231,-0.2235,-0.2265,-0.2294,-0.2289,-0.232,-0.2337,-0.2338,-0.2368,-0.2331,-0.2343,-0.2376,-0.2418,-0.2355,-0.2334,-0.2326,-0.2445,-0.2447,-0.2448,-0.2449,0,0,-0.2047,-0.2104,-0.2097,-0.2111,-0.215,-0.2153,-0.2148,-0.2165,-0.2166,-0.2188,-0.2183,-0.2194,-0.2224,-0.2237,-0.2269,-0.2258,-0.2203,-0.2292,-0.2294,-0.2273,-0.2162,-0.2136,-0.2125,-0.2227,-0.2226,-0.2225,-0.2159,0,-0.1983,-0.1977,-0.2019,-0.2001,-0.2003,-0.2058,-0.2052,-0.2075,-0.2101,-0.2107,-0.2136,-0.2142,-0.2182,-0.219,-0.2182,-0.2211,-0.2181,-0.2217,-0.2222,-0.2222,-0.2211,-0.2115,-0.2088,-0.2024,-0.2151,-0.215,-0.2149,0,-0.1908,-0.1924,-0.1906,-0.1945,-0.1947,-0.1942,-0.196,-0.1965,-0.1992,-0.2011,-0.2025,-0.2062,-0.2058,-0.2099,-0.2093,-0.2117,-0.2121,-0.2136,-0.2135,-0.2136,-0.218,-0.2112,-0.2006,-0.1995,-0.2137,-0.2138,-0.2139,0,-0.1822,-0.184,-0.1831,-0.1842,-0.1887,-0.1881,-0.1899,-0.1928,-0.1935,-0.1951,-0.1956,-0.1971,-0.1979,-0.199,-0.203,-0.2057,-0.2018,-0.2064,-0.2033,-0.2032,-0.2022,-0.2022,-0.1913,-0.2027,-0.2027,-0.2028,-0.2028,0,-0.1746,-0.1732,-0.1793,-0.1787,-0.1773,-0.1821,-0.1806,-0.1829,-0.1854,-0.1853,-0.1901,-0.1899,-0.1953,-0.1956,-0.1988,-0.1977,-0.1981,-0.1995,-0.2003,-0.199,-0.1988,-0.1993,-0.1998,-0.2025,-0.2026,-0.2026,-0.2027,0,-0.1648,-0.1688,-0.1681,-0.1724,-0.1735,-0.1722,-0.1758,-0.1754,-0.1783,-0.1781,-0.1783,-0.1829,-0.1835,-0.1876,-0.1893,-0.1914,-0.1891,-0.1908,-0.1881,-0.1887,-0.1853,-0.1855,-0.1743,-0.173,-0.1853,-0.1852,-0.1851,0,-0.1596,-0.1586,-0.1628,-0.163,-0.1646,-0.1651,-0.1658,-0.1705,-0.1711,-0.1739,-0.1731,-0.1742,-0.1752,-0.176,-0.1794,-0.1806,-0.1823,-0.1783,-0.1825,-0.1811,-0.182,-0.182,-0.1818,-0.1773,-0.1772,-0.1771,-0.177,0,-0.1498,-0.1518,-0.1527,-0.1542,-0.155,-0.1564,-0.1582,-0.1581,-0.1633,-0.1637,-0.1644,-0.1652,-0.1668,-0.1677,-0.1695,-0.1713,-0.1749,-0.1756,-0.1749,-0.1735,-0.1719,-0.1725,-0.1855,-0.1758,-0.1759,-0.176,-0.1761,-0.1761,-0.142,-0.1414,-0.1441,-0.1449,-0.1467,-0.1482,-0.1479,-0.1508,-0.1515,-0.1531,-0.1559,-0.1561,-0.1587,-0.1614,-0.1629,-0.1632,-0.1653,-0.1644,-0.1641,-0.1638,-0.163,-0.172,-0.1635,-0.1636,-0.1636,-0.1636,-0.1637,0,-0.1324,-0.1344,-0.1351,-0.1373,-0.1379,-0.1413,-0.1434,-0.1436,-0.1438,-0.1458,-0.1468,-0.1475,-0.1484,-0.1518,-0.153,-0.1525,-0.1542,-0.1526,-0.1526,-0.153,-0.1611,-0.1615,-0.1513,-0.1513,-0.1513,-0.1513,-0.1513,-0.1513,-0.1274,-0.1264,-0.1287,-0.1286,-0.1307,-0.131,-0.1318,-0.1331,-0.1348,-0.1354,-0.1361,-0.1384,-0.1409,-0.1423,-0.1432,-0.1442,-0.1444,-0.1422,-0.1437,-0.1512,-0.1524,-0.1536,-0.1539,-0.1423,-0.1423,-0.1356,-0.1355,-0.1355]}]]